QPF
0.01 0.01 0.01 0.01 0.01 0.01 0.01 0.01 0.02 0.02 0.02 0.01 0.00 0.00 0.00 0.00 0.00 0.00 0.00 0.00 0.00 0.00 0.00 0.00 0.00 0.00 0.00 0.00 0.00 0.00 0.00 0.00 0.00 0.00 0.00 0.00 0.01 0.01
0.01 0.01 0.01 0.01 0.01 0.01 0.01 0.01 0.02 0.02 0.01 0.00 0.01 0.00 0.00 0.00 0.01 0.01 0.01 0.01 0.01 0.00 0.00 0.00 0.00 0.00 0.00 0.00 0.00 0.00 0.00 0.00 0.00 0.00 0.00 0.00 0.00 0.00
0.01 0.01 0.01 0.01 0.01 0.01 0.01 0.01 0.01 0.01 0.01 0.01 0.01 0.01 0.01 0.01 0.02 0.02 0.01 0.01 0.01 0.01 0.01 0.01 0.00 0.00 0.00 0.00 0.00 0.00 0.00 0.00 0.00 0.00 0.00 0.00 0.00 0.00
0.02 0.03 0.03 0.03 0.02 0.02 0.02 0.01 0.01 0.01 0.01 0.01 0.01 0.01 0.01 0.01 0.02 0.02 0.01 0.00 0.00 0.01 0.01 0.01 0.00 0.00 0.00 0.00 0.00 0.00 0.00 0.00 0.00 0.00 0.00 0.00 0.00 0.00
0.06 0.06 0.05 0.05 0.04 0.04 0.03 0.03 0.02 0.02 0.03 0.02 0.01 0.01 0.01 0.01 0.03 0.03 0.02 0.02 0.00 0.01 0.01 0.01 0.00 0.00 0.00 0.00 0.00 0.00 0.00 0.00 0.00 0.00 0.00 0.00 0.00 0.00
0.09 0.07 0.08 0.08 0.07 0.07 0.07 0.06 0.05 0.04 0.05 0.05 0.03 0.04 0.04 0.03 0.05 0.05 0.05 0.05 0.03 0.01 0.01 0.02 0.01 0.01 0.00 0.00 0.00 0.00 0.00 0.00 0.00 0.00 0.00 0.00 0.00 0.00
0.11 0.10 0.11 0.09 0.07 0.07 0.07 0.07 0.06 0.06 0.07 0.08 0.07 0.07 0.08 0.09 0.10 0.09 0.08 0.07 0.05 0.02 0.02 0.02 0.02 0.02 0.02 0.02 0.02 0.01 0.01 0.01 0.00 0.00 0.00 0.00 0.00 0.00
0.11 0.11 0.09 0.07 0.05 0.04 0.03 0.03 0.03 0.04 0.05 0.06 0.07 0.07 0.08 0.08 0.08 0.07 0.08 0.07 0.06 0.04 0.06 0.03 0.02 0.02 0.02 0.02 0.04 0.04 0.02 0.01 0.01 0.00 0.00 0.00 0.00 0.00
0.06 0.06 0.06 0.05 0.04 0.04 0.05 0.03 0.02 0.02 0.02 0.02 0.02 0.03 0.04 0.05 0.05 0.05 0.05 0.05 0.04 0.04 0.06 0.03 0.02 0.02 0.00 0.01 0.03 0.03 0.01 0.01 0.00 0.00 0.00 0.00 0.00 0.00
0.02 0.02 0.03 0.03 0.03 0.04 0.04 0.04 0.04 0.04 0.03 0.02 0.02 0.02 0.02 0.03 0.03 0.03 0.03 0.03 0.02 0.02 0.04 0.04 0.02 0.02 0.01 0.01 0.02 0.03 0.02 0.01 0.01 0.01 0.00 0.00 0.00 0.00
0.02 0.02 0.02 0.02 0.03 0.02 0.02 0.03 0.04 0.03 0.03 0.02 0.02 0.01 0.01 0.01 0.01 0.01 0.01 0.01 0.01 0.01 0.02 0.03 0.02 0.01 0.01 0.00 0.00 0.01 0.01 0.01 0.00 0.00 0.00 0.00 0.00 0.00
0.02 0.02 0.02 0.01 0.01 0.01 0.01 0.01 0.01 0.01 0.02 0.02 0.01 0.01 0.01 0.01 0.01 0.01 0.01 0.02 0.01 0.01 0.01 0.01 0.01 0.01 0.01 0.00 0.00 0.01 0.01 0.01 0.01 0.00 0.00 0.00 0.00 0.00
0.01 0.01 0.00 0.00 0.00 0.00 0.00 0.00 0.00 0.00 0.01 0.01 0.01 0.01 0.01 0.01 0.01 0.01 0.01 0.02 0.02 0.01 0.01 0.01 0.01 0.01 0.00 0.00 0.00 0.00 0.00 0.01 0.01 0.01 0.01 0.00 0.00 0.00
0.01 0.00 0.00 0.00 0.00 0.00 0.00 0.00 0.00 0.00 0.00 0.00 0.00 0.00 0.00 0.00 0.00 0.01 0.01 0.01 0.01 0.01 0.01 0.01 0.01 0.01 0.02 0.01 0.00 0.00 0.00 0.01 0.01 0.01 0.01 0.01 0.01 0.01
0.00 0.00 0.00 0.00 0.00 0.00 0.00 0.00 0.00 0.00 0.00 0.00 0.00 0.00 0.00 0.00 0.00 0.00 0.00 0.00 0.01 0.01 0.01 0.01 0.02 0.03 0.03 0.03 0.01 0.01 0.01 0.01 0.01 0.01 0.01 0.01 0.01 0.02
0.00 0.00 0.00 0.00 0.00 0.00 0.00 0.00 0.00 0.00 0.00 0.00 0.00 0.00 0.00 0.00 0.00 0.01 0.01 0.00 0.01 0.00 0.00 0.01 0.02 0.03 0.03 0.03 0.02 0.01 0.01 0.01 0.01 0.01 0.01 0.01 0.01 0.01
0.00 0.00 0.00 0.00 0.00 0.00 0.00 0.00 0.00 0.00 0.00 0.00 0.01 0.01 0.01 0.01 0.01 0.01 0.01 0.01 0.01 0.01 0.01 0.01 0.01 0.02 0.03 0.03 0.02 0.02 0.02 0.02 0.01 0.02 0.02 0.01 0.01 0.01
0.00 0.00 0.00 0.00 0.00 0.00 0.00 0.00 0.00 0.00 0.00 0.01 0.01 0.01 0.01 0.01 0.01 0.00 0.00 0.01 0.01 0.01 0.01 0.01 0.01 0.02 0.02 0.02 0.03 0.03 0.03 0.03 0.02 0.03 0.03 0.03 0.01 0.01
0.00 0.00 0.00 0.00 0.00 0.00 0.00 0.00 0.00 0.00 0.00 0.01 0.01 0.01 0.01 0.01 0.00 0.00 0.00 0.01 0.01 0.01 0.01 0.01 0.02 0.03 0.03 0.03 0.01 0.02 0.03 0.03 0.03 0.03 0.03 0.03 0.03 0.02
0.00 0.00 0.00 0.00 0.00 0.00 0.00 0.00 0.00 0.00 0.00 0.00 0.00 0.00 0.00 0.01 0.01 0.01 0.01 0.01 0.01 0.01 0.01 0.01 0.02 0.03 0.04 0.03 0.02 0.01 0.01 0.02 0.04 0.04 0.03 0.04 0.03 0.02
0.00 0.00 0.00 0.00 0.00 0.00 0.00 0.00 0.00 0.00 0.00 0.00 0.00 0.01 0.01 0.01 0.01 0.01 0.01 0.01 0.02 0.02 0.02 0.02 0.02 0.02 0.03 0.03 0.03 0.01 0.02 0.03 0.03 0.04 0.04 0.04 0.03 0.03
0.00 0.00 0.00 0.00 0.00 0.00 0.00 0.00 0.00 0.00 0.00 0.00 0.00 0.01 0.01 0.01 0.01 0.01 0.01 0.02 0.02 0.02 0.02 0.01 0.02 0.02 0.03 0.04 0.04 0.03 0.03 0.03 0.04 0.03 0.03 0.03 0.03 0.02
0.00 0.00 0.00 0.00 0.00 0.00 0.00 0.00 0.00 0.00 0.00 0.00 0.00 0.00 0.00 0.00 0.01 0.01 0.02 0.02 0.02 0.01 0.01 0.01 0.01 0.02 0.03 0.03 0.03 0.03 0.02 0.03 0.03 0.04 0.04 0.04 0.03 0.02
MSLP
1017.28 1017.39 1017.49 1017.58 1017.63 1017.65 1017.62 1017.55 1017.44 1017.30 1017.15 1017.00 1016.88 1016.79 1016.76 1016.78 1016.86 1017.00 1017.18 1017.41 1017.66 1017.93 1018.20 1018.45 1018.66 1018.84 1018.98 1019.07 1019.13 1019.17 1019.20 1019.22 1019.24 1019.27 1019.29 1019.32 1019.34 1019.34
1017.01 1017.09 1017.17 1017.24 1017.29 1017.31 1017.30 1017.25 1017.16 1017.05 1016.91 1016.78 1016.65 1016.55 1016.48 1016.46 1016.48 1016.56 1016.69 1016.86 1017.07 1017.31 1017.56 1017.80 1018.02 1018.22 1018.38 1018.50 1018.59 1018.65 1018.70 1018.73 1018.76 1018.78 1018.80 1018.81 1018.82 1018.81
1016.72 1016.80 1016.88 1016.96 1017.03 1017.08 1017.09 1017.08 1017.03 1016.94 1016.83 1016.70 1016.56 1016.44 1016.33 1016.26 1016.22 1016.23 1016.28 1016.39 1016.53 1016.70 1016.90 1017.10 1017.30 1017.48 1017.64 1017.77 1017.88 1017.97 1018.04 1018.10 1018.16 1018.20 1018.24 1018.27 1018.29 1018.30
1016.51 1016.60 1016.71 1016.83 1016.94 1017.03 1017.09 1017.11 1017.09 1017.02 1016.92 1016.79 1016.65 1016.49 1016.35 1016.22 1016.12 1016.05 1016.03 1016.04 1016.10 1016.19 1016.30 1016.43 1016.57 1016.70 1016.83 1016.95 1017.06 1017.16 1017.26 1017.35 1017.45 1017.54 1017.62 1017.70 1017.76 1017.80
1016.43 1016.57 1016.73 1016.89 1017.05 1017.19 1017.29 1017.34 1017.34 1017.28 1017.18 1017.04 1016.87 1016.69 1016.50 1016.32 1016.17 1016.03 1015.93 1015.87 1015.83 1015.82 1015.84 1015.87 1015.92 1015.97 1016.03 1016.10 1016.19 1016.28 1016.39 1016.52 1016.66 1016.80 1016.94 1017.08 1017.19 1017.29
1016.54 1016.72 1016.93 1017.14 1017.35 1017.52 1017.65 1017.71 1017.71 1017.64 1017.52 1017.35 1017.15 1016.94 1016.72 1016.51 1016.31 1016.14 1015.98 1015.85 1015.74 1015.64 1015.55 1015.47 1015.41 1015.36 1015.33 1015.32 1015.34 1015.40 1015.50 1015.64 1015.81 1016.00 1016.20 1016.39 1016.57 1016.72
1016.80 1017.02 1017.27 1017.52 1017.75 1017.95 1018.07 1018.13 1018.10 1018.00 1017.84 1017.63 1017.40 1017.16 1016.92 1016.70 1016.49 1016.30 1016.12 1015.95 1015.78 1015.61 1015.44 1015.26 1015.08 1014.91 1014.76 1014.65 1014.59 1014.58 1014.64 1014.76 1014.93 1015.14 1015.38 1015.62 1015.85 1016.04
1017.16 1017.40 1017.66 1017.93 1018.17 1018.35 1018.46 1018.47 1018.40 1018.25 1018.04 1017.79 1017.52 1017.26 1017.02 1016.80 1016.61 1016.43 1016.27 1016.10 1015.91 1015.70 1015.46 1015.19 1014.91 1014.62 1014.35 1014.13 1013.96 1013.86 1013.84 1013.91 1014.06 1014.27 1014.51 1014.77 1015.02 1015.23
1017.55 1017.79 1018.05 1018.30 1018.51 1018.66 1018.71 1018.67 1018.54 1018.32 1018.05 1017.76 1017.46 1017.19 1016.96 1016.77 1016.62 1016.49 1016.36 1016.22 1016.05 1015.82 1015.54 1015.22 1014.85 1014.47 1014.09 1013.74 1013.46 1013.26 1013.15 1013.15 1013.23 1013.40 1013.62 1013.86 1014.10 1014.31
1017.92 1018.12 1018.35 1018.57 1018.73 1018.82 1018.82 1018.71 1018.50 1018.22 1017.90 1017.56 1017.25 1016.97 1016.76 1016.60 1016.49 1016.42 1016.34 1016.25 1016.11 1015.90 1015.61 1015.26 1014.84 1014.38 1013.92 1013.47 1013.09 1012.78 1012.58 1012.48 1012.49 1012.58 1012.74 1012.94 1013.15 1013.33
1018.24 1018.40 1018.57 1018.73 1018.84 1018.87 1018.79 1018.62 1018.35 1018.02 1017.65 1017.28 1016.95 1016.67 1016.47 1016.33 1016.27 1016.23 1016.21 1016.16 1016.05 1015.87 1015.60 1015.23 1014.80 1014.30 1013.78 1013.28 1012.82 1012.43 1012.14 1011.95 1011.87 1011.88 1011.96 1012.09 1012.23 1012.35
1018.53 1018.63 1018.75 1018.85 1018.89 1018.86 1018.73 1018.51 1018.19 1017.82 1017.42 1017.02 1016.67 1016.38 1016.18 1016.05 1016.00 1015.98 1015.98 1015.95 1015.87 1015.71 1015.45 1015.10 1014.67 1014.18 1013.65 1013.12 1012.62 1012.18 1011.83 1011.57 1011.40 1011.33 1011.32 1011.36 1011.42 1011.48
1018.83 1018.87 1018.93 1018.97 1018.96 1018.88 1018.72 1018.46 1018.12 1017.72 1017.30 1016.89 1016.52 1016.22 1015.99 1015.84 1015.76 1015.72 1015.70 1015.66 1015.58 1015.42 1015.18 1014.86 1014.46 1013.99 1013.49 1012.97 1012.48 1012.03 1011.64 1011.34 1011.11 1010.95 1010.86 1010.82 1010.79 1010.77
1019.17 1019.16 1019.16 1019.15 1019.10 1018.99 1018.80 1018.53 1018.19 1017.80 1017.38 1016.96 1016.57 1016.24 1015.97 1015.77 1015.63 1015.53 1015.45 1015.36 1015.24 1015.06 1014.83 1014.53 1014.16 1013.74 1013.29 1012.83 1012.38 1011.95 1011.57 1011.24 1010.96 1010.75 1010.58 1010.45 1010.34 1010.25
1019.57 1019.51 1019.47 1019.42 1019.34 1019.21 1019.01 1018.75 1018.43 1018.05 1017.65 1017.23 1016.83 1016.47 1016.15 1015.88 1015.65 1015.46 1015.28 1015.11 1014.92 1014.71 1014.46 1014.17 1013.84 1013.48 1013.09 1012.70 1012.30 1011.92 1011.56 1011.23 1010.93 1010.67 1010.43 1010.23 1010.04 1009.86
1020.02 1019.92 1019.83 1019.74 1019.64 1019.50 1019.31 1019.07 1018.78 1018.44 1018.07 1017.67 1017.27 1016.88 1016.51 1016.16 1015.84 1015.54 1015.25 1014.98 1014.71 1014.44 1014.16 1013.86 1013.56 1013.25 1012.93 1012.60 1012.27 1011.93 1011.60 1011.27 1010.95 1010.64 1010.35 1010.06 1009.79 1009.54
1020.47 1020.33 1020.19 1020.07 1019.95 1019.80 1019.63 1019.42 1019.18 1018.89 1018.56 1018.20 1017.81 1017.41 1017.00 1016.59 1016.18 1015.78 1015.39 1015.02 1014.66 1014.32 1014.00 1013.69 1013.40 1013.11 1012.84 1012.55 1012.26 1011.96 1011.64 1011.30 1010.95 1010.59 1010.23 1009.86 1009.51 1009.17
1020.88 1020.69 1020.51 1020.35 1020.21 1020.06 1019.91 1019.74 1019.54 1019.31 1019.04 1018.73 1018.37 1017.99 1017.56 1017.12 1016.65 1016.18 1015.71 1015.25 1014.81 1014.41 1014.03 1013.70 1013.39 1013.11 1012.84 1012.56 1012.28 1011.97 1011.63 1011.26 1010.86 1010.43 1009.99 1009.54 1009.10 1008.67
1021.20 1020.96 1020.74 1020.55 1020.38 1020.24 1020.10 1019.97 1019.82 1019.65 1019.45 1019.20 1018.90 1018.54 1018.14 1017.68 1017.19 1016.68 1016.16 1015.64 1015.14 1014.68 1014.26 1013.88 1013.54 1013.23 1012.93 1012.63 1012.30 1011.95 1011.56 1011.12 1010.64 1010.12 1009.59 1009.05 1008.52 1008.01
1021.40 1021.12 1020.87 1020.66 1020.48 1020.34 1020.23 1020.13 1020.03 1019.92 1019.78 1019.59 1019.35 1019.05 1018.67 1018.24 1017.76 1017.23 1016.69 1016.14 1015.60 1015.10 1014.63 1014.21 1013.81 1013.44 1013.08 1012.71 1012.32 1011.88 1011.40 1010.86 1010.29 1009.67 1009.04 1008.41 1007.78 1007.19
1021.50 1021.20 1020.94 1020.72 1020.54 1020.42 1020.32 1020.26 1020.20 1020.14 1020.05 1019.92 1019.73 1019.47 1019.14 1018.74 1018.27 1017.76 1017.21 1016.66 1016.10 1015.57 1015.06 1014.58 1014.13 1013.68 1013.24 1012.78 1012.29 1011.75 1011.16 1010.52 1009.84 1009.13 1008.40 1007.68 1006.98 1006.31
1021.54 1021.25 1021.00 1020.79 1020.63 1020.52 1020.46 1020.42 1020.39 1020.36 1020.30 1020.20 1020.04 1019.81 1019.51 1019.13 1018.68 1018.18 1017.65 1017.09 1016.52 1015.97 1015.43 1014.90 1014.39 1013.87 1013.34 1012.79 1012.19 1011.55 1010.86 1010.12 1009.35 1008.55 1007.75 1006.96 1006.20 1005.48
1021.57 1021.31 1021.10 1020.93 1020.80 1020.72 1020.68 1020.65 1020.64 1020.61 1020.55 1020.45 1020.29 1020.05 1019.75 1019.37 1018.93 1018.43 1017.90 1017.34 1016.76 1016.19 1015.62 1015.06 1014.49 1013.92 1013.32 1012.69 1012.02 1011.30 1010.53 1009.72 1008.89 1008.04 1007.19 1006.37 1005.58 1004.83
Thickness
5724 5724 5722 5724 5725 5725 5724 5721 5713 5707 5711 5720 5724 5727 5726 5723 5720 5716 5714 5712 5710 5708 5706 5704 5702 5701 5700 5699 5697 5696 5695 5695 5694 5693 5692 5692 5691 5691
5721 5720 5719 5720 5721 5722 5721 5719 5716 5710 5706 5715 5718 5721 5721 5720 5716 5713 5711 5709 5707 5705 5703 5702 5701 5699 5698 5697 5695 5694 5693 5692 5691 5691 5690 5689 5689 5688
5718 5717 5715 5715 5715 5715 5716 5714 5713 5710 5704 5708 5713 5715 5714 5712 5710 5708 5707 5706 5704 5703 5702 5700 5699 5698 5696 5695 5693 5692 5691 5690 5689 5688 5687 5687 5686 5686
5713 5712 5711 5711 5709 5708 5708 5707 5707 5706 5702 5699 5702 5704 5705 5705 5704 5703 5702 5702 5702 5702 5700 5698 5697 5695 5693 5692 5690 5689 5688 5687 5686 5685 5684 5683 5683 5682
5709 5707 5706 5705 5703 5702 5701 5700 5699 5700 5698 5695 5694 5696 5697 5698 5696 5695 5695 5694 5694 5695 5695 5694 5692 5690 5689 5687 5686 5685 5684 5683 5681 5680 5680 5679 5678 5678
5704 5702 5700 5698 5696 5694 5693 5691 5690 5689 5688 5686 5686 5686 5686 5688 5687 5684 5683 5684 5684 5685 5686 5686 5685 5684 5683 5682 5680 5680 5679 5678 5677 5675 5674 5674 5673 5672
5696 5694 5692 5690 5687 5685 5683 5681 5679 5677 5676 5674 5673 5673 5673 5672 5670 5671 5669 5671 5673 5674 5673 5674 5674 5674 5674 5673 5672 5672 5672 5671 5670 5670 5669 5668 5667 5667
5687 5685 5683 5680 5677 5674 5672 5670 5668 5666 5663 5661 5660 5658 5658 5657 5657 5656 5655 5654 5655 5660 5657 5659 5661 5661 5663 5664 5665 5664 5664 5664 5663 5663 5662 5661 5660 5660
5678 5675 5673 5668 5665 5663 5661 5660 5657 5654 5651 5648 5646 5645 5643 5642 5640 5639 5638 5638 5638 5642 5641 5643 5646 5647 5651 5653 5655 5655 5655 5654 5654 5653 5653 5653 5652 5652
5666 5663 5658 5653 5651 5649 5649 5647 5645 5642 5639 5637 5634 5632 5630 5628 5625 5624 5623 5624 5627 5628 5628 5627 5632 5634 5639 5641 5641 5642 5642 5643 5643 5642 5642 5642 5642 5643
5653 5649 5646 5641 5636 5635 5634 5632 5630 5628 5626 5623 5621 5619 5617 5615 5612 5609 5608 5607 5609 5612 5613 5612 5616 5618 5623 5625 5627 5627 5628 5629 5629 5629 5630 5630 5631 5631
5640 5635 5630 5626 5623 5620 5618 5616 5613 5611 5609 5608 5606 5605 5604 5601 5598 5594 5591 5589 5589 5591 5594 5592 5594 5596 5601 5608 5609 5610 5611 5613 5614 5615 5616 5617 5618 5617
5628 5623 5617 5612 5610 5606 5603 5600 5596 5593 5592 5592 5591 5590 5589 5586 5583 5580 5576 5572 5571 5571 5572 5571 5572 5574 5576 5584 5588 5590 5592 5595 5597 5600 5601 5603 5604 5604
5612 5608 5603 5599 5595 5592 5589 5585 5581 5577 5576 5576 5574 5572 5569 5566 5564 5561 5559 5557 5555 5554 5554 5553 5553 5554 5555 5560 5566 5571 5573 5576 5578 5581 5584 5587 5590 5592
5596 5592 5589 5585 5581 5578 5574 5569 5565 5562 5559 5557 5554 5551 5548 5546 5544 5542 5541 5539 5538 5538 5537 5536 5536 5536 5536 5539 5545 5549 5553 5557 5559 5562 5566 5570 5573 5576
5580 5578 5575 5572 5566 5562 5558 5554 5549 5545 5540 5537 5533 5531 5528 5526 5523 5521 5519 5519 5519 5519 5519 5518 5518 5518 5520 5522 5525 5530 5533 5537 5541 5544 5548 5552 5556 5559
5562 5563 5562 5558 5552 5547 5542 5537 5532 5527 5521 5516 5513 5510 5507 5504 5502 5500 5498 5497 5498 5499 5500 5500 5500 5502 5504 5506 5510 5513 5517 5521 5524 5527 5530 5536 5540 5543
5546 5547 5543 5538 5533 5527 5521 5516 5511 5506 5501 5497 5494 5491 5488 5485 5483 5482 5480 5479 5479 5480 5481 5482 5484 5488 5492 5496 5496 5499 5503 5505 5509 5512 5515 5520 5527 5531
5533 5530 5525 5519 5513 5508 5502 5497 5491 5487 5483 5480 5476 5474 5471 5469 5467 5466 5465 5464 5464 5465 5466 5467 5469 5472 5476 5484 5488 5486 5487 5492 5496 5501 5504 5508 5515 5521
5519 5513 5507 5501 5496 5490 5484 5479 5474 5471 5468 5464 5461 5459 5457 5455 5453 5452 5452 5451 5452 5453 5455 5457 5459 5460 5462 5468 5475 5480 5481 5483 5487 5492 5496 5500 5505 5511
5502 5496 5490 5484 5479 5473 5468 5463 5460 5456 5453 5450 5447 5444 5442 5441 5441 5441 5441 5442 5441 5444 5447 5450 5452 5453 5455 5460 5467 5475 5478 5479 5481 5484 5489 5493 5499 5504
5485 5479 5474 5469 5464 5459 5454 5450 5447 5444 5441 5438 5434 5432 5430 5430 5430 5431 5433 5434 5435 5437 5440 5443 5446 5448 5450 5454 5460 5467 5473 5478 5481 5483 5486 5488 5490 5497
5469 5464 5459 5455 5450 5446 5441 5437 5434 5432 5428 5425 5422 5421 5420 5420 5422 5423 5425 5427 5429 5431 5434 5437 5441 5443 5446 5450 5455 5461 5467 5473 5478 5482 5486 5489 5490 5494